Regional Weather Roundup
Issued by NWS New Orleans/Baton Rouge, LA

Home | Current Version | Previous Version | Text Only | Print | Product List | Glossary On
Versions: 1 2 3 4 5 6 7 8 9 10 11 12 13 14 15 16 17 18 19 20 21 22 23 24 25 26 27 28 29 30 31 32 33 34 35 36 37 38 39 40 41 42 43 44 45 46 47 48 49 50
520
ASUS44 KLIX 311905
RWRLIX
NEW ORLEANS REGIONAL WEATHER ROUNDUP
NATIONAL WEATHER SERVICE NEW ORLEANS LA
200 PM CDT THU JUL 31 2014

NOTE: "FAIR" INDICATES FEW OR NO CLOUDS BELOW 12,000 FEET WITH NO
      SIGNIFICANT WEATHER AND/OR OBSTRUCTIONS TO VISIBILITY.
      SKY/WX - SKY CONDITION AND SIGNIFICANT WEATHER.
      TMP - AIR TEMPERATURE.     DP    - DEWPOINT TEMPERATURE.
      RH  - RELATIVE HUMIDITY.   PRES  - PRESSURE.
      HI  - HEAT INDEX.          WCI   - WIND CHILL INDEX.

*  THESE STATIONS ARE NOT NWS OR FAA STATIONS AND ARE NOT UNDER
   NWS QUALITY CONTROL.

LAZ038-040-048-061>063-065>067-069-312000-
SOUTHEAST LOUISIANA

CITY           SKY/WX    TMP DP  RH WIND       PRES   REMARKS
N.O. AUDUBON     N/A     90  68  48 MISG        N/A
N.O. INTL ARPT PTSUNNY   86  64  47 NE10      30.03F
N.O. LAKEFRONT PTSUNNY   87  61  41 N7        30.04F
N.O. DOWNTOWN*   N/A     88  63  42 N6        30.03F
SLIDELL        MOSUNNY   86  60  41 NE6       30.03F
BATON ROUGE    MOSUNNY   87  66  49 E7        30.02F
BOOTHVILLE     MOSUNNY   84  68  58 E7        30.04F
BELLE CHASSE   PTSUNNY   87  66  49 SE7       30.03S
BOGALUSA*        N/A     84  59  42 CALM      30.05F
GALLIANO*      NOT AVBL
NEW ROADS*       N/A     85  64  49 SE3       30.03S
GONZALES*        N/A     85  70  60 CALM      30.02F
HAMMOND*       MOSUNNY   88  61  40 CALM      30.05F
HOUMA*         PTSUNNY   90  66  45 E8        30.03F
PORT FOURCHON* CLEAR     86  66  51 SE10      30.05F

$$

MSZ070-080>082-312000-
SOUTHERN MISSISSIPPI

CITY           SKY/WX    TMP DP  RH WIND       PRES   REMARKS
MCCOMB         PTSUNNY   82  61  48 E5        30.05F
GULFPORT       MOSUNNY   92  58  31 N10       30.02F
BILOXI         SUNNY     88  59  37 N6        30.02F
PASCAGOULA     SUNNY     87  62  43 VRB6      30.03S
STENNIS ARPT*  MOSUNNY  N/A N/A N/A NE5       30.03F

$$

COASTAL OBSERVATIONS
LAKE AND NEARSHORE STATIONS

STATION/POSITION TIME  TEMP    WIND        PRES    WAVE
                       AIR SEA DIR/SP/G            HT/PER
                 (UTC) (F)     (DEG/KT/KT) (MB)    (FT/S)
PASCAGOULA       1900   85     190/  9/ 11 1016.3
WAVELAND YACHT   1900   85      10/  7/  8 1016.4
GRAND ISLE       1900   85 87  100/  2/  6 1017.9
SOUTHWEST PASS   1900   91 85   90/  2/  3 1017.5
NEW CANAL        1900   83 83   30/  8/ 10 1017.5
SHELL BEACH      1900   82 82  350/  3/  5 1017.0

OFFSHORE STATIONS

STATION/POSITION TIME  TEMP    WIND        PRES    WAVE
                       AIR SEA DIR/SP/G            HT/PER
                 (UTC) (F)     (DEG/KT/KT) (MB)    (FT/S)
64 S DAUPHIN ISL 1849   82 87   40/  6/ 10 1017.2

$$




USA.gov is the U.S. government's official web portal to all federal, state and local government web resources and services.